COSMOS 397 DEB, 5156

Orbit data source: Space-Track

COSMOS 397 DEB, 5156 is space debris in LEO originally from a launch on Thu, 25 Feb 1971 UTC launched from the Tyuratam Missile And Space Complex (TTMTR). Debris objects in space refer to the collection of defunct objects orbiting the Earth. Examples of debris include non-operational satellites, rocket bodies, and fragments generated from explosions, collisions, or faulty payload assembly.

Loading next visibility...
Identifier
5156, 1971-015AK
Orbit
LEO
Country
Flag of CISCIS
Related business
Manufacturer
Unknown
Mission
Spacecraft
Bus & Motor
Unknown
Mass
Unknown
Launch date (UTC)
1971-02-25 (55 years ago)
Launch vehicle
Unknown
Launch site
Tyuratam Missile And Space Complex (TTMTR)
Object type
Payload
Rocket body
Debris
Shape & HBR
Unknown shape, 0.1 m
Radar Cross Section
Small (<0.1 m²)

Expand to show TLE details & history
Last TLE update: 8 hours ago

TLE from 8 hours ago
0 COSMOS 397 DEB
1 05156U 71015AK  25346.96053064  .00004505  00000-0  12976-2 0  9995
2 05156  65.6825 244.1776 0626833  99.7360 267.5035 13.68865471639931
Epoch: 2025-12-12T23:03Z
TLE epoch observation values (Epoch: 2025-12-12T23:03:09.847Z)
Latitude
-0.00005°
Longitude
176.4919°
Altitude
1,054.548 km
Speed
7.301 km/s
True Right ascension
16h 16m 42s
True Declination
0° 00' 00"
Sunlit
Object was in daylight at epoch
Visualization orbit readout
Latitude
Unknown
Longitude
Unknown
Altitude
Unknown
Speed
Unknown
Apparent Right ascension
Unknown
Apparent Declination
Unknown
Sunlit
N/A
Visualization observer readout
Local Sidereal Time
05:23:01
Azimuth
Unknown
Elevation
Unknown
Doppler factor
Unknown
Orbital elements
Apogee altitude
1,464.8 km
Perigee altitude
539.555 km
Semi-major axis
7,380.314 km
Eccentricity
0.06268
Inclination
65.6825°
RAAN
244.1776°
Arg. of periapsis
99.736°
True anomaly
260.37022°
Mean anomaly
267.5035°
Eccentric anomaly
263.93213°
Mean motion
3.42319 °/min
Orbital period
105.17 mins
BSTAR
0.0012976
Loading maneuver chart data...
Computing Atmospheric mass density...
Loading historical data...
Loading historical data...
Loading historical data...
Loading historical data...
Loading historical data...
Loading historical data...
Loading historical data...

Documentation

Showing up to 5 results
|